Weather History for Shelton, WA

Change the Weather History Date:

Sunday, November 4, 2012

  Actual Average Record
Temperature  
Mean Temperature 56 °F -  
Max Temperature 61 °F 55 °F 69 °F (1970)
Min Temperature 52 °F 40 °F 21 °F (2002)
Degree Days  
Heating Degree Days 8    
Growing Degree Days 6 (Base 50)    
Moisture  
Dew Point 56 °F    
Average Humidity 96    
Maximum Humidity 100    
Minimum Humidity 90    
Precipitation  
Precipitation 0.59 in - - ()
Sea Level Pressure  
Sea Level Pressure 30.21 in    
Wind  
Wind Speed 3 mph (SW)    
Max Wind Speed 12 mph    
Max Gust Speed -    
Visibility 4 miles    
Events Rain    
Averages and records for this station are not official NWS values.
T = Trace of Precipitation, MM = Missing Value Source: NWS Daily Summary

Daily Weather History Graph

Daily Weather History Graph

Search for Another Location

Airport:

Trip Planner

Search our weather history database for the weather conditions in past years. The results will help you decide how hot, cold, wet, or windy it might be!

Date:

Astronomy

Nov. 04, 2012 Rise Set
Actual Time 7:01 AM PST 4:50 PM PST
Civil Twilight 6:28 AM PST 5:22 PM PST
Nautical Twilight 5:52 AM PST 5:59 PM PST
Astronomical Twilight 5:16 AM PST 6:34 PM PST
Moon 9:30 PM PST (11/4) 11:52 AM PST (11/4)
Length of Visible Light 10h 53m
Length of Day
9h 49m
Waning Gibbous, 71% of the Moon is Illuminated
Nov 4
Waning Gibbous
Nov 6
Last Quarter
Nov 13
New
Nov 20
First Quarter
Nov 28
Full

Hourly Weather History & Observations

Time (PST) Temp. Dew Point Humidity Pressure Visibility Wind Dir Wind Speed Gust Speed Precip Events Conditions
12:53 AM 53.1 °F 52.0 °F 96% 30.16 in 7.0 mi Calm Calm - N/A   Overcast
1:46 AM 53.6 °F 53.6 °F 100% 30.16 in 10.0 mi Calm Calm - N/A   Overcast
1:53 AM 53.1 °F 53.1 °F 100% 30.17 in 9.0 mi Calm Calm - N/A   Overcast
1:53 AM 53.1 °F 53.1 °F 100% 30.16 in 10.0 mi Calm Calm - N/A   Overcast
2:18 AM 53.6 °F 53.6 °F 100% 30.15 in 10.0 mi Calm Calm - N/A   Overcast
2:27 AM 53.6 °F 51.8 °F 94% 30.16 in 10.0 mi Calm Calm - N/A   Overcast
2:53 AM 53.1 °F 52.0 °F 96% 30.17 in 4.0 mi Calm Calm - 0.00 in   Overcast
3:46 AM 53.6 °F 51.8 °F 94% 30.16 in 2.5 mi Calm Calm - 0.01 in Rain Light Rain
3:53 AM 52.0 °F 52.0 °F 100% 30.16 in 2.5 mi Calm Calm - 0.01 in Rain Light Rain
4:29 AM 53.6 °F 51.8 °F 94% 30.16 in 1.5 mi Calm Calm - 0.02 in Rain Light Rain
4:53 AM 53.1 °F 52.0 °F 96% 30.18 in 1.2 mi Calm Calm - 0.03 in Rain Light Rain
5:04 AM 53.6 °F 51.8 °F 94% 30.18 in 1.5 mi Calm Calm - 0.00 in Rain Light Rain
6:53 AM 53.1 °F 53.1 °F 100% 30.18 in 3.0 mi North 3.5 mph - N/A   Overcast
7:34 AM 53.6 °F 53.6 °F 100% 30.18 in 2.0 mi Calm Calm - N/A   Overcast
7:44 AM 53.6 °F 53.6 °F 100% 30.19 in 1.8 mi NNW 3.5 mph - N/A   Overcast
7:53 AM 54.0 °F 54.0 °F 100% 30.19 in 2.0 mi Calm Calm - N/A   Overcast
8:30 AM 55.4 °F 53.6 °F 94% 30.20 in 1.5 mi Calm Calm - N/A   Overcast
8:50 AM 55.4 °F 53.6 °F 94% 30.20 in 2.0 mi Calm Calm - 0.01 in   Overcast
8:53 AM 55.0 °F 54.0 °F 96% 30.21 in 2.0 mi Calm Calm - 0.01 in   Overcast
9:08 AM 55.4 °F 55.4 °F 100% 30.20 in 2.5 mi Calm Calm - N/A   Overcast
9:26 AM 55.4 °F 55.4 °F 100% 30.20 in 6.0 mi Calm Calm - N/A   Overcast
9:41 AM 57.2 °F 55.4 °F 94% 30.20 in 5.0 mi Calm Calm - N/A   Overcast
9:48 AM 57.2 °F 55.4 °F 94% 30.20 in 6.0 mi Calm Calm - N/A   Overcast
9:53 AM 57.0 °F 55.9 °F 96% 30.21 in 4.0 mi Calm Calm - N/A   Overcast
10:14 AM 57.2 °F 55.4 °F 94% 30.22 in 3.0 mi WNW 3.5 mph - N/A   Overcast
10:18 AM 57.2 °F 55.4 °F 94% 30.22 in 3.0 mi Calm Calm - N/A   Overcast
10:24 AM 57.2 °F 57.2 °F 100% 30.22 in 2.5 mi Calm Calm - N/A   Overcast
10:49 AM 57.2 °F 57.2 °F 100% 30.22 in 2.0 mi Calm Calm - N/A   Overcast
10:53 AM 57.9 °F 57.0 °F 97% 30.22 in 2.0 mi Calm Calm - N/A   Overcast
11:25 AM 57.2 °F 57.2 °F 100% 30.22 in 3.0 mi SSW 3.5 mph - N/A   Overcast
11:32 AM 59.0 °F 57.2 °F 94% 30.22 in 2.0 mi Calm Calm - N/A   Overcast
11:48 AM 59.0 °F 57.2 °F 94% 30.22 in 1.8 mi SW 4.6 mph - N/A   Overcast
11:53 AM 59.0 °F 57.9 °F 96% 30.22 in 1.8 mi SW 4.6 mph - N/A   Overcast
12:20 PM 60.8 °F 59.0 °F 94% 30.22 in 2.0 mi SSW 4.6 mph - N/A   Overcast
12:45 PM 60.8 °F 59.0 °F 94% 30.22 in 1.8 mi SSW 5.8 mph - N/A   Overcast
12:53 PM 59.0 °F 59.0 °F 100% 30.22 in 2.0 mi SSE 3.5 mph - N/A   Overcast
1:04 PM 60.8 °F 59.0 °F 94% 30.22 in 1.5 mi SW 4.6 mph - 0.01 in   Overcast
1:26 PM 60.8 °F 59.0 °F 94% 30.23 in 1.2 mi SW 9.2 mph - 0.01 in   Overcast
1:33 PM 60.8 °F 59.0 °F 94% 30.23 in 1.2 mi SW 10.4 mph - 0.02 in   Overcast
1:46 PM 60.8 °F 59.0 °F 94% 30.23 in 1.5 mi SW 9.2 mph - 0.02 in   Overcast
1:53 PM 60.1 °F 59.0 °F 96% 30.23 in 1.8 mi SSW 8.1 mph - 0.02 in   Overcast
2:08 PM 60.8 °F 59.0 °F 94% 30.23 in 2.0 mi SW 8.1 mph - N/A   Overcast
2:25 PM 60.8 °F 59.0 °F 94% 30.23 in 3.0 mi SW 6.9 mph - N/A   Overcast
2:51 PM 60.8 °F 59.0 °F 94% 30.22 in 7.0 mi SSW 4.6 mph - N/A   Overcast
2:53 PM 60.1 °F 59.0 °F 96% 30.23 in 8.0 mi SSW 4.6 mph - N/A   Overcast
3:36 PM 60.8 °F 59.0 °F 94% 30.20 in 10.0 mi South 6.9 mph - 0.00 in   Overcast
3:53 PM 61.0 °F 57.9 °F 90% 30.21 in 10.0 mi SW 5.8 mph - 0.00 in   Overcast
4:20 PM 60.8 °F 59.0 °F 94% 30.21 in 2.5 mi WSW 5.8 mph - 0.03 in Rain Light Rain
4:35 PM 59.0 °F 59.0 °F 100% 30.22 in 3.0 mi WSW 5.8 mph - 0.04 in Rain Light Rain
4:42 PM 59.0 °F 57.2 °F 94% 30.22 in 3.0 mi WSW 6.9 mph - 0.05 in Rain Rain
4:46 PM 59.0 °F 57.2 °F 94% 30.22 in 2.5 mi WSW 6.9 mph - 0.06 in Rain Light Rain
4:53 PM 59.0 °F 57.9 °F 96% 30.23 in 2.5 mi WSW 5.8 mph - 0.07 in Rain Light Rain
5:00 PM 59.0 °F 57.2 °F 94% 30.22 in 2.5 mi WSW 6.9 mph - 0.01 in Rain Light Rain
5:14 PM 59.0 °F 57.2 °F 94% 30.22 in 3.0 mi WSW 4.6 mph - 0.03 in Rain Light Rain
5:53 PM 59.0 °F 57.9 °F 96% 30.22 in 10.0 mi Calm Calm - 0.05 in Rain Light Rain
6:53 PM 60.1 °F 59.0 °F 96% 30.22 in 10.0 mi SW 8.1 mph - 0.00 in   Overcast
7:00 PM 60.8 °F 59.0 °F 94% 30.24 in 4.0 mi WNW 10.4 mph - 0.00 in Rain Light Rain
7:03 PM 60.8 °F 59.0 °F 94% 30.25 in 2.5 mi WNW 10.4 mph - 0.01 in Rain Rain
7:10 PM 59.0 °F 59.0 °F 100% 30.24 in 1.0 mi WNW 8.1 mph - 0.13 in Rain Heavy Rain
7:15 PM 59.0 °F 59.0 °F 100% 30.24 in 1.2 mi West 9.2 mph - 0.18 in Rain Heavy Rain
7:29 PM 59.0 °F 57.2 °F 94% 30.24 in 2.5 mi West 8.1 mph - 0.25 in Rain Rain
7:39 PM 57.2 °F 57.2 °F 100% 30.23 in 3.0 mi WSW 6.9 mph - 0.27 in Rain Light Rain
7:49 PM 57.2 °F 57.2 °F 100% 30.23 in 4.0 mi WSW 10.4 mph - 0.28 in Rain Light Rain
7:53 PM 57.9 °F 57.0 °F 97% 30.24 in 4.0 mi SW 10.4 mph - 0.29 in Rain Light Rain
8:18 PM 57.2 °F 57.2 °F 100% 30.23 in 6.0 mi SW 8.1 mph - 0.02 in Rain Light Rain
8:53 PM 57.9 °F 57.0 °F 97% 30.24 in 5.0 mi SW 11.5 mph - 0.05 in Rain Light Rain
9:53 PM 57.9 °F 57.0 °F 97% 30.25 in 5.0 mi SW 11.5 mph - 0.05 in Rain Light Rain
10:24 PM 57.2 °F 55.4 °F 94% 30.25 in 5.0 mi SW 11.5 mph - 0.01 in   Overcast
10:39 PM 57.2 °F 55.4 °F 94% 30.24 in 6.0 mi SW 11.5 mph - 0.01 in   Overcast
10:53 PM 57.0 °F 55.9 °F 96% 30.25 in 9.0 mi SW 10.4 mph - 0.01 in   Overcast